Phuket, Thailand

2:23 PM +07 on December 12, 2017 (GMT +0700)
Phuket International

Weather History for VTSP - March, 2013

Change the Weather History Date:

Friday, March 8, 2013

  Actual Average Record
Temperature  
Mean Temperature 83 °F -  
Max Temperature 93 °F 92 °F 96 °F (1997)
Min Temperature 73 °F 76 °F 71 °F (2016)
Cooling Degree Days 18    
Growing Degree Days 33 (Base 50)    
Moisture  
Dew Point 73 °F    
Average Humidity 73    
Maximum Humidity 96    
Minimum Humidity 47    
Precipitation  
Precipitation 0.00 in 0.11 in - ()
Sea Level Pressure  
Sea Level Pressure 29.89 in    
Wind  
Wind Speed 3 mph ()    
Max Wind Speed 12 mph    
Max Gust Speed -    
Visibility 5.2 miles    
Events      
Averages and records for this station are not official NWS values.
T = Trace of Precipitation, MM = Missing Value Source: Averaged Metar Reports

Daily Weather History Graph

Daily Weather History Graph

Search for Another Location

Airport or City:

Trip Planner

Search our weather history database for the weather conditions in past years. The results will help you decide how hot, cold, wet, or windy it might be!

Date:

Astronomy

Mar. 08, 2013 Rise Set
Actual Time 6:37 AM +07 6:38 PM +07
Civil Twilight 6:16 AM +07 6:59 PM +07
Nautical Twilight 5:51 AM +07 7:23 PM +07
Astronomical Twilight 5:27 AM +07 7:47 PM +07
Moon 3:22 AM +07 (3/8) 3:30 PM +07 (3/8)
Length of Visible Light 12h 42m
Length of Day
12h 01m
Waning Crescent, 16% of the Moon is Illuminated
Mar 8
Waning Crescent
Mar 12
New
Mar 20
First Quarter
Mar 27
Full
Apr 3
Last Quarter

Hourly Weather History & Observations

Time (+07) Temp. Heat Index Dew Point Humidity Pressure Visibility Wind Dir Wind Speed Gust Speed Precip Events Conditions
12:00 AM 77.0 °F - 75.2 °F 94% 29.95 in 5.0 mi Calm Calm - N/A   Mostly Cloudy
1:00 AM 78 °F - 77 °F 95% 29.88 in 5 mi Calm Calm - -   Mist
1:00 AM 75.2 °F - 73.4 °F 94% 29.92 in 5.0 mi Calm Calm - N/A   Mostly Cloudy
1:30 AM 77.0 °F - 73.4 °F 89% 29.92 in 5.0 mi Calm Calm - N/A   Mostly Cloudy
2:00 AM 75.2 °F - 73.4 °F 94% 29.89 in 5.0 mi Calm Calm - N/A   Mostly Cloudy
2:30 AM 75.2 °F - 73.4 °F 94% 29.89 in 5.0 mi Calm Calm - N/A   Mostly Cloudy
3:00 AM 75.2 °F - 73.4 °F 94% 29.89 in 5.0 mi Calm Calm - N/A   Mostly Cloudy
3:30 AM 75.2 °F - 71.6 °F 89% 29.86 in 5.0 mi East 3.5 mph - N/A   Mostly Cloudy
4:00 AM 75.2 °F - 71.6 °F 89% 29.86 in 5.0 mi Calm Calm - N/A   Mostly Cloudy
4:30 AM 75.2 °F - 73.4 °F 94% 29.86 in 5.0 mi Calm Calm - N/A   Mostly Cloudy
5:00 AM 75.2 °F - 71.6 °F 89% 29.86 in 5.0 mi Calm Calm - N/A   Mostly Cloudy
5:30 AM 75.2 °F - 71.6 °F 89% 29.89 in 5.0 mi Calm Calm - N/A   Mostly Cloudy
6:00 AM 75.2 °F - 71.6 °F 89% 29.89 in 5.0 mi Calm Calm - N/A   Mostly Cloudy
6:30 AM 75.2 °F - 71.6 °F 89% 29.89 in 5.0 mi Calm Calm - N/A   Mostly Cloudy
7:00 AM 75 °F - 74 °F 96% 29.87 in 6 mi Calm Calm - -   Mist
7:00 AM 75.2 °F - 71.6 °F 89% 29.92 in 5.0 mi Calm Calm - N/A   Mostly Cloudy
7:30 AM 77.0 °F - 73.4 °F 89% 29.92 in 5.0 mi ENE 4.6 mph - N/A   Mostly Cloudy
8:00 AM 78.8 °F - 73.4 °F 83% 29.92 in 5.0 mi East 6.9 mph - N/A   Scattered Clouds
8:30 AM 82.4 °F 88.2 °F 73.4 °F 74% 29.95 in 5.0 mi East 5.8 mph - N/A   Mostly Cloudy
9:00 AM 82.4 °F 88.2 °F 73.4 °F 74% 29.95 in 5.0 mi East 5.8 mph - N/A   Mostly Cloudy
9:30 AM 84.2 °F 90.9 °F 73.4 °F 70% 29.98 in 5.0 mi East 10.4 mph - N/A   Mostly Cloudy
10:00 AM 86.0 °F 91.8 °F 71.6 °F 62% 29.95 in 5.0 mi ENE 10.4 mph - N/A   Mostly Cloudy
10:30 AM 86.0 °F 91.8 °F 71.6 °F 62% 29.95 in 5.0 mi East 10.4 mph - N/A   Mostly Cloudy
11:00 AM 86.0 °F 91.8 °F 71.6 °F 62% 29.95 in 5.0 mi ENE 11.5 mph - N/A   Mostly Cloudy
11:30 AM 86.0 °F 91.8 °F 71.6 °F 62% 29.95 in 5.0 mi ENE 10.4 mph - N/A   Mostly Cloudy
12:00 PM 86.0 °F 91.8 °F 71.6 °F 62% 29.92 in 5.0 mi East 10.4 mph - N/A   Mostly Cloudy
12:30 PM 87.8 °F 93.8 °F 71.6 °F 58% 29.92 in 5.0 mi ENE 11.5 mph - N/A   Mostly Cloudy
1:00 PM 91 °F - 73 °F 47% 29.88 in 5 mi East 5.8 mph - -   Haze
1:00 PM 89.6 °F 96.2 °F 71.6 °F 55% 29.89 in 5.0 mi ENE 9.2 mph - N/A   Mostly Cloudy
1:30 PM 89.6 °F 96.2 °F 71.6 °F 55% 29.89 in 5.0 mi ENE 9.2 mph - N/A   Mostly Cloudy
2:00 PM 89.6 °F 94.7 °F 69.8 °F 52% 29.86 in 5.0 mi ENE 6.9 mph - N/A   Mostly Cloudy
2:30 PM 89.6 °F 96.2 °F 71.6 °F 55% 29.86 in 5.0 mi ESE 8.1 mph - N/A   Mostly Cloudy
3:00 PM 91.4 °F 96.8 °F 69.8 °F 49% 29.83 in 5.0 mi Variable 6.9 mph - N/A   Mostly Cloudy
3:30 PM 91.4 °F 96.8 °F 69.8 °F 49% 29.83 in 5.0 mi ENE 9.2 mph - N/A   Mostly Cloudy
4:00 PM 91.4 °F 96.8 °F 69.8 °F 49% 29.83 in 5.0 mi ENE 8.1 mph - N/A   Mostly Cloudy
4:30 PM 91.4 °F 98.4 °F 71.6 °F 52% 29.80 in 5.0 mi East 8.1 mph - N/A   Mostly Cloudy
5:00 PM 91.4 °F 96.8 °F 69.8 °F 49% 29.80 in 5.0 mi East 6.9 mph - N/A   Mostly Cloudy
5:30 PM 89.6 °F 94.7 °F 69.8 °F 52% 29.80 in 5.0 mi East 6.9 mph - N/A   Mostly Cloudy
6:00 PM 89.6 °F 94.7 °F 69.8 °F 52% 29.83 in 5.0 mi East 4.6 mph - N/A   Mostly Cloudy
6:30 PM 84.2 °F 92.3 °F 75.2 °F 74% 29.83 in 5.0 mi NW 10.4 mph - N/A   Mostly Cloudy
7:00 PM 87 °F - 77 °F 65% 29.80 in 5 mi SSE 3.5 mph - -   Mist
7:00 PM 84.2 °F 92.3 °F 75.2 °F 74% 29.83 in 5.0 mi NW 8.1 mph - N/A   Mostly Cloudy
7:30 PM 84.2 °F 90.9 °F 73.4 °F 70% 29.86 in 5.0 mi WNW 6.9 mph - N/A   Mostly Cloudy
8:00 PM 84.2 °F 90.9 °F 73.4 °F 70% 29.86 in 5.0 mi WNW 8.1 mph - N/A   Mostly Cloudy
8:30 PM 84.2 °F 90.9 °F 73.4 °F 70% 29.89 in 5.6 mi WNW 5.8 mph - N/A   Scattered Clouds
9:00 PM 84.2 °F 90.9 °F 73.4 °F 70% 29.89 in 5.6 mi WNW 9.2 mph - N/A   Scattered Clouds
9:30 PM 84.2 °F 90.9 °F 73.4 °F 70% 29.92 in 6.2 mi NNW 5.8 mph - N/A   Scattered Clouds
10:00 PM 84.2 °F 90.9 °F 73.4 °F 70% 29.92 in 6.2 mi Calm Calm - N/A   Scattered Clouds
10:30 PM 78.8 °F - 73.4 °F 83% 29.95 in 6.2 mi Calm Calm - N/A   Mostly Cloudy
11:00 PM 82.4 °F 88.2 °F 73.4 °F 74% 29.95 in 6.2 mi Calm Calm - N/A   Mostly Cloudy
11:30 PM 80.6 °F 86.2 °F 75.2 °F 84% 29.92 in 6.2 mi Calm Calm - N/A   Mostly Cloudy